Weather History for Columbia, SC

Change the Weather History Date:

Sunday, November 27, 2011

  Actual Average Record
Temperature  
Mean Temperature 67 °F 51 °F  
Max Temperature 74 °F 64 °F 84 °F (1973)
Min Temperature 59 °F 39 °F 20 °F (1974)
Degree Days  
Heating Degree Days 0 14  
Month to date heating degree days 252 277  
Since 1 July heating degree days 383 397  
Cooling Degree Days 2 0  
Month to date cooling degree days 23 14  
Year to date cooling degree days 2694 2166  
Growing Degree Days 16 (Base 50)    
Moisture  
Dew Point 54 °F    
Average Humidity 62    
Maximum Humidity 78    
Minimum Humidity 46    
Precipitation  
Precipitation 0.00 in 0.10 in 1.86 in (1987)
Month to date precipitation 1.14 2.45  
Year to date precipitation 34.97 41.08  
Sea Level Pressure  
Sea Level Pressure 30.11 in    
Wind  
Wind Speed 6 mph (SE)    
Max Wind Speed 22 mph    
Max Gust Speed 28 mph    
Visibility 10 miles    
Events      
T = Trace of Precipitation, MM = Missing Value Source: NWS Daily Summary

Daily Weather History Graph

Daily Weather History Graph

Search for Another Location

Airport:

Trip Planner

Search our weather history database for the weather conditions in past years. The results will help you decide how hot, cold, wet, or windy it might be!

Date:

Astronomy

Nov. 27, 2011 Rise Set
Actual Time 7:07 AM EST 5:16 PM EST
Civil Twilight 6:40 AM EST 5:43 PM EST
Nautical Twilight 6:09 AM EST 6:13 PM EST
Astronomical Twilight 5:39 AM EST 6:43 PM EST
Moon 9:30 AM EST (11/27) 7:53 PM EST (11/27)
Length of Visible Light 11h 02m
Length of Day
10h 08m
Waxing Crescent, 8% of the Moon is Illuminated
Nov 27
Waxing Crescent
Dec 2
First Quarter
Dec 10
Full
Dec 17
Last Quarter
Dec 24
New

Hourly Weather History & Observations

Time (EST) Temp. Dew Point Humidity Pressure Visibility Wind Dir Wind Speed Gust Speed Precip Events Conditions
12:56 AM 60.1 °F 52.0 °F 75% 30.22 in 10.0 mi Calm Calm - N/A   Overcast
1:56 AM 60.1 °F 52.0 °F 75% 30.20 in 10.0 mi Calm Calm - N/A   Overcast
2:56 AM 60.1 °F 53.1 °F 78% 30.19 in 10.0 mi Calm Calm - N/A   Overcast
3:56 AM 60.1 °F 53.1 °F 78% 30.18 in 10.0 mi Calm Calm - N/A   Overcast
4:56 AM 60.1 °F 53.1 °F 78% 30.18 in 10.0 mi ENE 4.6 mph - N/A   Overcast
5:56 AM 60.1 °F 53.1 °F 78% 30.18 in 10.0 mi Calm Calm - N/A   Overcast
6:56 AM 60.1 °F 53.1 °F 78% 30.19 in 10.0 mi Calm Calm - N/A   Overcast
7:56 AM 60.1 °F 54.0 °F 80% 30.18 in 10.0 mi East 4.6 mph - N/A   Overcast
8:56 AM 62.1 °F 54.0 °F 75% 30.19 in 10.0 mi ESE 4.6 mph - N/A   Overcast
9:56 AM 64.9 °F 55.0 °F 70% 30.18 in 10.0 mi ESE 5.8 mph - N/A   Overcast
10:56 AM 68.0 °F 55.0 °F 63% 30.17 in 10.0 mi ESE 6.9 mph - N/A   Overcast
11:56 AM 71.1 °F 53.1 °F 53% 30.14 in 10.0 mi SSE 11.5 mph - N/A   Overcast
12:56 PM 71.1 °F 54.0 °F 55% 30.12 in 10.0 mi SSE 9.2 mph - N/A   Overcast
1:56 PM 73.0 °F 54.0 °F 51% 30.08 in 10.0 mi SSE 10.4 mph - N/A   Overcast
2:56 PM 73.9 °F 52.0 °F 46% 30.06 in 10.0 mi SSE 12.7 mph - N/A   Overcast
3:56 PM 73.0 °F 53.1 °F 49% 30.05 in 10.0 mi SE 11.5 mph - N/A   Overcast
4:56 PM 73.0 °F 53.1 °F 49% 30.03 in 10.0 mi SE 10.4 mph - N/A   Mostly Cloudy
5:56 PM 72.0 °F 54.0 °F 53% 30.04 in 10.0 mi SSE 10.4 mph - N/A   Overcast
6:56 PM 69.1 °F 55.9 °F 63% 30.03 in 10.0 mi SSE 6.9 mph - N/A   Mostly Cloudy
7:56 PM 69.1 °F 55.0 °F 61% 30.03 in 10.0 mi SE 8.1 mph - N/A   Mostly Cloudy
8:56 PM 69.1 °F 55.0 °F 61% 30.03 in 10.0 mi SE 10.4 mph - N/A   Mostly Cloudy
9:56 PM 68.0 °F 55.0 °F 63% 30.03 in 10.0 mi ESE 10.4 mph - N/A   Overcast
10:56 PM 66.9 °F 55.9 °F 68% 30.02 in 10.0 mi ESE 8.1 mph - N/A   Mostly Cloudy
11:56 PM 66.9 °F 57.9 °F 73% 30.00 in 10.0 mi ESE 8.1 mph - N/A   Overcast